| DS18B20 | SHTC3 | ||||||
|---|---|---|---|---|---|---|---|
| ID | Date d/m/Y & Time | data1 สูง | data2 ต่ำ | data3 นอก | temp pcb | hum pcb | Time |
| 7985 | 02/04/2026 02:30:36 | 28.5  | 28.4  | 26.6  | 28.4  | 73.2  | 02:30 |
| 7984 | 02/04/2026 02:25:54 | 28.5  | 28.5  | 26.5  | 28.4  | 73.2  | 02:25 |
| 7983 | 02/04/2026 02:21:12 | 28.6  | 28.5  | 26.5  | 28.5  | 73.3  | 02:21 |
| 7982 | 02/04/2026 02:16:30 | 28.6  | 28.5  | 26.5  | 28.4  | 73.2  | 02:16 |
| 7981 | 02/04/2026 02:11:49 | 28.6  | 28.6  | 26.5  | 28.4  | 73.2  | 02:11 |
| 7980 | 02/04/2026 02:07:07 | 28.6  | 28.6  | 26.5  | 28.4  | 73.1  | 02:07 |
| 7979 | 02/04/2026 02:02:25 | 28.6  | 28.6  | 26.5  | 28.3  | 73.2  | 02:02 |
| 7978 | 02/04/2026 01:57:43 | 28.7  | 28.6  | 26.8  | 28.4  | 73.2  | 01:57 |
| 7977 | 02/04/2026 01:53:02 | 28.7  | 28.6  | 26.7  | 28.6  | 73.3  | 01:53 |
| 7976 | 02/04/2026 01:48:20 | 28.7  | 28.7  | 26.6  | 28.6  | 73.2  | 01:48 |
| 7975 | 02/04/2026 01:43:38 | 28.7  | 28.7  | 26.7  | 28.5  | 73.2  | 01:43 |
| 7974 | 02/04/2026 01:38:56 | 28.8  | 28.7  | 26.9  | 28.6  | 73.2  | 01:38 |
| 7973 | 02/04/2026 01:34:14 | 28.8  | 28.8  | 27.0  | 28.6  | 73.2  | 01:34 |
| 7972 | 02/04/2026 01:29:32 | 28.8  | 28.8  | 26.9  | 28.7  | 73.2  | 01:29 |
| 7971 | 02/04/2026 01:24:51 | 28.8  | 28.8  | 26.8  | 28.6  | 73.2  | 01:24 |
| 7970 | 02/04/2026 01:20:09 | 28.8  | 28.8  | 26.7  | 28.6  | 73.0  | 01:20 |
| 7969 | 02/04/2026 01:15:27 | 28.8  | 28.8  | 26.8  | 28.7  | 73.1  | 01:15 |
| 7968 | 02/04/2026 01:10:45 | 28.9  | 28.8  | 26.9  | 28.6  | 73.2  | 01:10 |
| 7967 | 02/04/2026 01:06:04 | 28.9  | 28.8  | 26.9  | 28.6  | 73.0  | 01:06 |
| 7966 | 02/04/2026 01:01:20 | 28.9  | 28.9  | 27.1  | 28.7  | 73.1  | 01:01 |
| 7965 | 02/04/2026 00:56:38 | 28.9  | 28.9  | 27.2  | 28.7  | 73.0  | 00:56 |
| 7964 | 02/04/2026 00:51:56 | 28.9  | 28.9  | 27.2  | 28.7  | 73.0  | 00:51 |
| 7963 | 02/04/2026 00:47:15 | 28.9  | 28.9  | 27.2  | 28.6  | 72.9  | 00:47 |
| 7962 | 02/04/2026 00:42:32 | 28.9  | 28.9  | 27.2  | 28.9  | 73.1  | 00:42 |